Weather History for KVBT - November, 2011

Change the Weather History Date:

Thursday, November 10, 2011

  Actual Average (KFYV) Record (KFYV)
Temperature  
Mean Temperature 42 °F 50 °F  
Max Temperature 55 °F 61 °F 79 °F (1989)
Min Temperature 28 °F 38 °F 12 °F (1950)
Degree Days  
Heating Degree Days 24 15  
Month to date heating degree days 136  
Since 1 July heating degree days 436  
Moisture  
Dew Point 27 °F    
Average Humidity 59    
Maximum Humidity 93    
Minimum Humidity 30    
Precipitation  
Precipitation 0.00 in 0.15 in 0.91 in (2004)
Month to date precipitation 1.44  
Year to date precipitation 42.48  
Sea Level Pressure  
Sea Level Pressure 30.28 in    
Wind  
Wind Speed 4 mph (West)    
Max Wind Speed 15 mph    
Max Gust Speed 21 mph    
Visibility 10 miles    
Events      
T = Trace of Precipitation, MM = Missing Value Source: NWS Daily Summary

Daily Weather History Graph

Daily Weather History Graph

Search for Another Location

Airport or City:

Trip Planner

Search our weather history database for the weather conditions in past years. The results will help you decide how hot, cold, wet, or windy it might be!

Date:

Astronomy

Nov. 10, 2011 Rise Set
Actual Time 6:48 AM CST 5:12 PM CST
Civil Twilight 6:21 AM CST 5:39 PM CST
Nautical Twilight 5:50 AM CST 6:10 PM CST
Astronomical Twilight 5:20 AM CST 6:40 PM CST
Moon 5:02 PM CST (11/10) 6:40 AM CST (11/10)
Length of Visible Light 11h 17m
Length of Day
10h 23m
Full, 100% of the Moon is Illuminated
Nov 10
Full
Nov 10
Full
Nov 18
Last Quarter
Nov 25
New
Dec 2
First Quarter

Hourly Weather History & Observations

Time (CST) Temp. Windchill Dew Point Humidity Pressure Visibility Wind Dir Wind Speed Gust Speed Precip Events Conditions
12:15 AM 35.6 °F - 28.4 °F 75% 30.33 in 10.0 mi Calm Calm - N/A   Clear
12:35 AM 35.6 °F 32.8 °F 30.2 °F 81% 30.32 in 10.0 mi WNW 3.5 mph - N/A   Clear
12:55 AM 35.6 °F - 28.4 °F 75% 30.33 in 10.0 mi Calm Calm - N/A   Clear
1:15 AM 35.6 °F - 28.4 °F 75% 30.33 in 10.0 mi Calm Calm - N/A   Clear
1:35 AM 35.6 °F - 30.2 °F 81% 30.33 in 10.0 mi Calm Calm - N/A   Clear
1:55 AM 33.8 °F 30.8 °F 28.4 °F 81% 30.33 in 10.0 mi NW 3.5 mph - N/A   Clear
2:15 AM 37.4 °F 33.8 °F 28.4 °F 70% 30.33 in 10.0 mi NNW 4.6 mph - N/A   Clear
2:35 AM 35.6 °F - 28.4 °F 75% 30.33 in 10.0 mi Calm Calm - N/A   Clear
2:55 AM 33.8 °F - 26.6 °F 75% 30.33 in 10.0 mi Calm Calm - N/A   Clear
3:15 AM 33.8 °F 30.8 °F 28.4 °F 81% 30.32 in 10.0 mi West 3.5 mph - N/A   Clear
3:35 AM 32.0 °F 28.7 °F 28.4 °F 87% 30.32 in 10.0 mi West 3.5 mph - N/A   Clear
3:55 AM 33.8 °F 30.8 °F 28.4 °F 81% 30.31 in 10.0 mi West 3.5 mph - N/A   Clear
4:15 AM 33.8 °F - 26.6 °F 75% 30.31 in 10.0 mi Calm Calm - N/A   Clear
4:35 AM 33.8 °F - 28.4 °F 81% 30.31 in 10.0 mi Calm Calm - N/A   Clear
4:55 AM 33.8 °F 30.8 °F 26.6 °F 75% 30.31 in 10.0 mi WSW 3.5 mph - N/A   Clear
5:15 AM 32.0 °F - 26.6 °F 80% 30.31 in 10.0 mi Calm Calm - N/A   Clear
5:35 AM 30.2 °F - 26.6 °F 86% 30.31 in 10.0 mi Calm Calm - N/A   Clear
5:55 AM 30.2 °F - 26.6 °F 86% 30.31 in 10.0 mi Calm Calm - N/A   Clear
6:15 AM 28.4 °F - 24.8 °F 86% 30.32 in 10.0 mi Calm Calm - N/A   Clear
6:35 AM 28.4 °F - 24.8 °F 86% 30.32 in 10.0 mi Calm Calm - N/A   Clear
6:55 AM 28.4 °F - 26.6 °F 93% 30.32 in 10.0 mi Calm Calm - N/A   Clear
7:15 AM 28.4 °F - 24.8 °F 86% 30.33 in 10.0 mi Calm Calm - N/A   Clear
7:35 AM 30.2 °F - 26.6 °F 86% 30.33 in 10.0 mi Calm Calm - N/A   Clear
7:55 AM 33.8 °F 30.8 °F 28.4 °F 81% 30.34 in 10.0 mi SW 3.5 mph - N/A   Clear
8:35 AM 37.4 °F 33.8 °F 28.4 °F 70% 30.35 in 10.0 mi West 4.6 mph - N/A   Clear
8:55 AM 41.0 °F 37.1 °F 28.4 °F 61% 30.35 in 10.0 mi West 5.8 mph - N/A   Clear
9:15 AM 44.6 °F 41.4 °F 28.4 °F 53% 30.35 in 10.0 mi West 5.8 mph - N/A   Clear
9:35 AM 46.4 °F 42.9 °F 26.6 °F 46% 30.35 in 10.0 mi West 6.9 mph - N/A   Clear
10:15 AM 48.2 °F - 24.8 °F 40% 30.35 in 9.0 mi WNW 11.5 mph 16.1 mph N/A   Clear
10:35 AM 50.0 °F - 24.8 °F 37% 30.35 in 10.0 mi West 12.7 mph - N/A   Clear
10:55 AM 51.8 °F - 24.8 °F 35% 30.34 in 10.0 mi WNW 11.5 mph - N/A   Clear
11:15 AM 51.8 °F - 26.6 °F 38% 30.34 in 9.0 mi WNW 12.7 mph 17.3 mph N/A   Clear
11:55 AM 53.6 °F - 26.6 °F 35% 30.32 in 10.0 mi WNW 11.5 mph 19.6 mph N/A   Clear
12:15 PM 53.6 °F - 23.0 °F 30% 30.31 in 10.0 mi NW 13.8 mph 20.7 mph N/A   Clear
12:35 PM 53.6 °F - 24.8 °F 33% 30.29 in 10.0 mi WNW 10.4 mph 17.3 mph N/A   Clear
12:55 PM 53.6 °F - 24.8 °F 33% 30.28 in 10.0 mi NW 15.0 mph 19.6 mph N/A   Clear
1:15 PM 53.6 °F - 24.8 °F 33% 30.27 in 10.0 mi NW 12.7 mph 18.4 mph N/A   Clear
1:35 PM 53.6 °F - 24.8 °F 33% 30.26 in 10.0 mi NNW 12.7 mph 18.4 mph N/A   Clear
1:55 PM 53.6 °F - 24.8 °F 33% 30.26 in 10.0 mi West 12.7 mph - N/A   Clear
2:15 PM 55.4 °F - 26.6 °F 33% 30.25 in 10.0 mi NW 10.4 mph 16.1 mph N/A   Clear
2:35 PM 55.4 °F - 26.6 °F 33% 30.24 in 10.0 mi WNW 9.2 mph - N/A   Clear
2:55 PM 55.4 °F - 26.6 °F 33% 30.24 in 10.0 mi West 11.5 mph 17.3 mph N/A   Clear
3:15 PM 55.4 °F - 28.4 °F 36% 30.24 in 10.0 mi West 9.2 mph - N/A   Clear
3:35 PM 55.4 °F - 28.4 °F 36% 30.23 in 10.0 mi WNW 12.7 mph - N/A   Clear
3:55 PM 55.4 °F - 26.6 °F 33% 30.23 in 10.0 mi WNW 5.8 mph - N/A   Clear
4:15 PM 55.4 °F - 28.4 °F 36% 30.22 in 10.0 mi WNW 6.9 mph - N/A   Clear
4:35 PM 53.6 °F - 28.4 °F 38% 30.22 in 10.0 mi West 6.9 mph - N/A   Clear
4:55 PM 53.6 °F - 28.4 °F 38% 30.21 in 10.0 mi WNW 4.6 mph - N/A   Clear
5:15 PM 51.8 °F - 28.4 °F 41% 30.20 in 10.0 mi West 3.5 mph - N/A   Clear
5:35 PM 48.2 °F - 28.4 °F 46% 30.20 in 10.0 mi Calm Calm - N/A   Clear
5:55 PM 46.4 °F - 26.6 °F 46% 30.20 in 10.0 mi Calm Calm - N/A   Clear
6:15 PM 44.6 °F 43.1 °F 30.2 °F 57% 30.19 in 10.0 mi South 3.5 mph - N/A   Clear
6:35 PM 44.6 °F - 26.6 °F 49% 30.19 in 10.0 mi Calm Calm - N/A   Clear
6:55 PM 44.6 °F 43.1 °F 28.4 °F 53% 30.18 in 10.0 mi South 3.5 mph - N/A   Clear
7:15 PM 42.8 °F 40.1 °F 28.4 °F 57% 30.18 in 10.0 mi South 4.6 mph - N/A   Clear
7:35 PM 41.0 °F 39.0 °F 28.4 °F 61% 30.17 in 10.0 mi SSE 3.5 mph - N/A   Clear
7:55 PM 41.0 °F - 28.4 °F 61% 30.17 in 10.0 mi Calm Calm - N/A   Clear
8:15 PM 41.0 °F 39.0 °F 28.4 °F 61% 30.17 in 10.0 mi South 3.5 mph - N/A   Clear
8:35 PM 41.0 °F 39.0 °F 28.4 °F 61% 30.17 in 10.0 mi South 3.5 mph - N/A   Clear
8:55 PM 39.2 °F 37.0 °F 28.4 °F 65% 30.17 in 10.0 mi South 3.5 mph - N/A   Clear
9:15 PM 39.2 °F 37.0 °F 28.4 °F 65% 30.16 in 10.0 mi South 3.5 mph - N/A   Clear
9:55 PM 39.2 °F 37.0 °F 28.4 °F 65% 30.16 in 10.0 mi South 3.5 mph - N/A   Clear
10:35 PM 39.2 °F 37.0 °F 28.4 °F 65% 30.16 in 10.0 mi South 3.5 mph - N/A   Clear
10:55 PM 41.0 °F 39.0 °F 28.4 °F 61% 30.14 in 10.0 mi South 3.5 mph - N/A   Clear
11:15 PM 39.2 °F 37.0 °F 28.4 °F 65% 30.14 in 10.0 mi South 3.5 mph - N/A   Clear
11:35 PM 39.2 °F 37.0 °F 28.4 °F 65% 30.14 in 10.0 mi South 3.5 mph - N/A   Clear
11:55 PM 39.2 °F 37.0 °F 28.4 °F 65% 30.13 in 10.0 mi South 3.5 mph - N/A   Clear